EWG594 EDDK-LEMH

Flight info

Callsign EWG594
Flight time 1h 49m
Altitude 37000
Route NVO2R NVO Y868 NAVAK Z283 LNO DCT RASCA DCT FAMEN DCT AHVEC UN857 DISAK DCT DIRMO DCT VALKU DCT ATSUP DCT MINSO DCT DEGOL DCT PPG DCT ALBER P84 GIR N727 SARGO
Aircraft A319/M-SDE3FGHIRWY/LB1

Departure

Time 2026-04-14 15:38
Airport Cologne Bonn Airport (EDDK)

Arrival

Time 2026-04-14 17:27
Airport Menorca Airport (LEMH)
Time Latitude Longitude Altitude Speed Heading
2026-04-14 14:59 50.87649 7.12355 232 ft 0 kts 288°
2026-04-14 15:24 50.87649 7.12358 232 ft 2 kts 288°
2026-04-14 15:25 50.87641 7.12396 234 ft 4 kts 288°
2026-04-14 15:25 50.87634 7.12436 232 ft 4 kts 272°
2026-04-14 15:25 50.87639 7.12472 232 ft 4 kts 226°
2026-04-14 15:25 50.87660 7.12495 235 ft 3 kts 199°
2026-04-14 15:26 50.87663 7.12496 234 ft 0 kts 198°
2026-04-14 15:28 50.87630 7.12479 234 ft 9 kts 197°
2026-04-14 15:29 50.87544 7.12436 232 ft 17 kts 198°
2026-04-14 15:29 50.87416 7.12370 233 ft 21 kts 198°
2026-04-14 15:29 50.87270 7.12295 232 ft 23 kts 198°
2026-04-14 15:29 50.87126 7.12377 232 ft 25 kts 137°
2026-04-14 15:30 50.86995 7.12568 234 ft 26 kts 137°
2026-04-14 15:30 50.86862 7.12761 239 ft 26 kts 137°
2026-04-14 15:30 50.86727 7.12956 243 ft 26 kts 138°
2026-04-14 15:30 50.86594 7.13148 247 ft 26 kts 137°
2026-04-14 15:31 50.86499 7.13352 249 ft 22 kts 78°
2026-04-14 15:31 50.86567 7.13582 249 ft 24 kts 64°
2026-04-14 15:31 50.86640 7.13826 252 ft 24 kts 65°
2026-04-14 15:31 50.86715 7.14065 255 ft 21 kts 63°
2026-04-14 15:32 50.86675 7.14222 260 ft 15 kts 139°
2026-04-14 15:32 50.86596 7.14338 262 ft 16 kts 136°
2026-04-14 15:32 50.86511 7.14460 265 ft 16 kts 139°
2026-04-14 15:32 50.86426 7.14582 271 ft 18 kts 137°
2026-04-14 15:33 50.86329 7.14724 276 ft 21 kts 137°
2026-04-14 15:33 50.86215 7.14889 283 ft 24 kts 137°
2026-04-14 15:33 50.86081 7.15080 288 ft 28 kts 138°
2026-04-14 15:33 50.85926 7.15311 293 ft 33 kts 137°
2026-04-14 15:34 50.85745 7.15570 301 ft 37 kts 137°
2026-04-14 15:34 50.85551 7.15852 306 ft 38 kts 137°
2026-04-14 15:34 50.85369 7.16118 308 ft 32 kts 132°
2026-04-14 15:34 50.85363 7.16412 309 ft 26 kts 57°
2026-04-14 15:35 50.85432 7.16498 308 ft 0 kts 15°
2026-04-14 15:36 50.85437 7.16500 308 ft 3 kts 15°
2026-04-14 15:36 50.85468 7.16513 310 ft 7 kts 15°
2026-04-14 15:36 50.85531 7.16518 308 ft 12 kts 353°
2026-04-14 15:37 50.85587 7.16473 308 ft 17 kts 320°
2026-04-14 15:37 50.87434 7.13815 792 ft 154 kts 317°
2026-04-14 15:38 50.88236 7.12717 1534 ft 151 kts 319°
2026-04-14 15:38 50.89046 7.11569 2020 ft 165 kts 317°
2026-04-14 15:38 50.89945 7.10256 2303 ft 187 kts 316°
2026-04-14 15:38 50.90753 7.08485 2689 ft 208 kts 294°
2026-04-14 15:39 50.91094 7.06262 3590 ft 210 kts 273°
2026-04-14 15:39 50.90887 7.03956 4424 ft 215 kts 251°
2026-04-14 15:39 50.90380 7.01614 5005 ft 237 kts 251°
2026-04-14 15:39 50.89823 6.99021 5555 ft 258 kts 251°
2026-04-14 15:40 50.89240 6.96290 6489 ft 264 kts 251°
2026-04-14 15:40 50.88650 6.93510 7440 ft 268 kts 251°
2026-04-14 15:40 50.88053 6.90697 8346 ft 272 kts 252°
2026-04-14 15:40 50.87450 6.87861 9229 ft 277 kts 252°
2026-04-14 15:41 50.86829 6.84941 10079 ft 283 kts 252°
2026-04-14 15:41 50.86186 6.81922 10606 ft 300 kts 252°
2026-04-14 15:41 50.85494 6.78675 10878 ft 322 kts 252°
2026-04-14 15:41 50.84761 6.75255 11437 ft 332 kts 252°
2026-04-14 15:42 50.84011 6.71768 12172 ft 337 kts 252°
2026-04-14 15:42 50.83250 6.68239 12923 ft 340 kts 252°
2026-04-14 15:42 50.82544 6.64641 13656 ft 344 kts 258°
2026-04-14 15:42 50.82294 6.60874 14332 ft 347 kts 271°
2026-04-14 15:43 50.82351 6.57033 14997 ft 350 kts 272°
2026-04-14 15:43 50.82406 6.53185 15698 ft 351 kts 271°
2026-04-14 15:43 50.82456 6.49311 16387 ft 353 kts 271°
2026-04-14 15:43 50.82507 6.45410 17060 ft 356 kts 272°
2026-04-14 15:44 50.82539 6.42807 17503 ft 358 kts 272°
2026-04-14 15:44 50.82587 6.38859 18169 ft 361 kts 272°
2026-04-14 15:44 50.82631 6.34875 18786 ft 364 kts 272°
2026-04-14 15:44 50.82687 6.29627 19534 ft 368 kts 272°
2026-04-14 15:45 50.82715 6.26886 19923 ft 370 kts 272°
2026-04-14 15:45 50.82756 6.22800 20496 ft 373 kts 272°
2026-04-14 15:45 50.82795 6.18692 21062 ft 376 kts 272°
2026-04-14 15:45 50.82836 6.14534 21620 ft 379 kts 273°
2026-04-14 15:46 50.82874 6.10347 22166 ft 382 kts 273°
2026-04-14 15:46 50.82909 6.06120 22714 ft 385 kts 273°
2026-04-14 15:46 50.82944 6.01874 23244 ft 388 kts 273°
2026-04-14 15:46 50.82657 5.97602 23728 ft 398 kts 256°
2026-04-14 15:47 50.81433 5.93631 24145 ft 408 kts 239°
2026-04-14 15:47 50.79570 5.90184 24567 ft 416 kts 227°
2026-04-14 15:47 50.77280 5.87313 24979 ft 424 kts 216°
2026-04-14 15:47 50.74712 5.84972 25376 ft 428 kts 212°
2026-04-14 15:48 50.72135 5.82692 25745 ft 432 kts 212°
2026-04-14 15:48 50.69498 5.80379 26119 ft 436 kts 212°
2026-04-14 15:48 50.66826 5.78060 26505 ft 439 kts 212°
2026-04-14 15:48 50.64130 5.75741 26886 ft 442 kts 212°
2026-04-14 15:49 50.61421 5.73406 27266 ft 445 kts 214°
2026-04-14 15:49 50.58879 5.70652 27634 ft 443 kts 224°
2026-04-14 15:49 50.56651 5.67330 28017 ft 440 kts 233°
2026-04-14 15:49 50.54697 5.63626 28393 ft 441 kts 236°
2026-04-14 15:50 50.52748 5.59876 28777 ft 444 kts 236°
2026-04-14 15:50 50.50780 5.56113 29132 ft 447 kts 236°
2026-04-14 15:50 50.48795 5.52334 29513 ft 449 kts 236°
2026-04-14 15:50 50.46799 5.48549 29880 ft 451 kts 236°
2026-04-14 15:51 50.44790 5.44751 30242 ft 454 kts 236°
2026-04-14 15:51 50.42769 5.40926 30542 ft 456 kts 236°
2026-04-14 15:51 50.40743 5.37092 30834 ft 458 kts 236°
2026-04-14 15:51 50.38700 5.33234 31138 ft 460 kts 236°
2026-04-14 15:52 50.36678 5.29424 31433 ft 462 kts 236°
2026-04-14 15:52 50.34616 5.25549 31729 ft 463 kts 236°
2026-04-14 15:52 50.32554 5.21684 32148 ft 462 kts 236°
2026-04-14 15:52 50.30490 5.17823 32561 ft 461 kts 236°
2026-04-14 15:53 50.28441 5.13987 32953 ft 461 kts 236°
2026-04-14 15:53 50.26389 5.10143 33332 ft 460 kts 236°
2026-04-14 15:53 50.24337 5.06301 33739 ft 460 kts 236°
2026-04-14 15:53 50.22289 5.02473 34130 ft 459 kts 237°
2026-04-14 15:54 50.18192 4.94836 34829 ft 458 kts 237°
2026-04-14 15:54 50.16240 4.91215 35165 ft 458 kts 237°
2026-04-14 15:54 50.14166 4.87374 35507 ft 457 kts 236°
2026-04-14 15:55 50.12119 4.83590 35827 ft 456 kts 236°
2026-04-14 15:55 50.10070 4.79804 36116 ft 457 kts 236°
2026-04-14 15:55 50.08024 4.76023 36199 ft 456 kts 237°
2026-04-14 15:56 50.03940 4.68499 36212 ft 455 kts 236°
2026-04-14 15:56 49.99877 4.61037 36212 ft 455 kts 236°
2026-04-14 15:57 49.95737 4.53584 36194 ft 457 kts 235°
2026-04-14 15:57 49.91337 4.46346 36215 ft 463 kts 233°
2026-04-14 15:58 49.86819 4.39185 36202 ft 464 kts 233°
2026-04-14 15:58 49.82338 4.32009 36197 ft 464 kts 234°
2026-04-14 15:59 49.77881 4.24774 36198 ft 464 kts 234°
2026-04-14 15:59 49.73447 4.17582 36198 ft 464 kts 234°
2026-04-14 16:00 49.68948 4.10344 36200 ft 465 kts 234°
2026-04-14 16:00 49.64487 4.03190 36195 ft 465 kts 233°
2026-04-14 16:01 49.59990 3.95997 36197 ft 466 kts 233°
2026-04-14 16:01 49.55486 3.88808 36198 ft 466 kts 233°
2026-04-14 16:02 49.50978 3.81631 36194 ft 466 kts 233°
2026-04-14 16:02 49.46212 3.74778 36193 ft 479 kts 218°
2026-04-14 16:02 49.43177 3.72566 36192 ft 491 kts 201°
2026-04-14 16:03 49.39804 3.71524 36189 ft 496 kts 192°
2026-04-14 16:03 49.32956 3.69991 36187 ft 498 kts 192°
2026-04-14 16:04 49.26087 3.68496 36188 ft 499 kts 192°
2026-04-14 16:04 49.19210 3.66982 36182 ft 500 kts 192°
2026-04-14 16:05 49.12324 3.65443 36196 ft 500 kts 192°
2026-04-14 16:05 49.05433 3.63907 36202 ft 501 kts 192°
2026-04-14 16:06 48.98569 3.62389 36189 ft 501 kts 191°
2026-04-14 16:06 48.91666 3.60873 36192 ft 501 kts 191°
2026-04-14 16:07 48.84756 3.59357 36195 ft 502 kts 191°
2026-04-14 16:07 48.77845 3.57850 36196 ft 502 kts 191°
2026-04-14 16:08 48.70927 3.56343 36195 ft 502 kts 191°
2026-04-14 16:08 48.64057 3.54840 36195 ft 502 kts 191°
2026-04-14 16:09 48.57143 3.53346 36184 ft 502 kts 191°
2026-04-14 16:09 48.50212 3.51848 36187 ft 503 kts 191°
2026-04-14 16:10 48.43285 3.50344 36189 ft 503 kts 191°
2026-04-14 16:10 48.36354 3.48854 36189 ft 503 kts 191°
2026-04-14 16:11 48.29432 3.47372 36190 ft 503 kts 191°
2026-04-14 16:11 48.22494 3.45890 36194 ft 503 kts 191°
2026-04-14 16:12 48.15614 3.44417 36188 ft 503 kts 191°
2026-04-14 16:12 48.08678 3.42932 36186 ft 503 kts 191°
2026-04-14 16:13 48.01746 3.41463 36187 ft 503 kts 191°
2026-04-14 16:13 47.94812 3.39998 36187 ft 503 kts 190°
2026-04-14 16:14 47.87862 3.38536 36186 ft 503 kts 190°
2026-04-14 16:14 47.80923 3.37070 36156 ft 504 kts 191°
2026-04-14 16:15 47.74012 3.35605 36162 ft 506 kts 190°
2026-04-14 16:15 47.67030 3.34147 36170 ft 507 kts 190°
2026-04-14 16:16 47.60039 3.32698 36176 ft 508 kts 190°
2026-04-14 16:16 47.53040 3.31242 36177 ft 508 kts 190°
2026-04-14 16:17 47.46039 3.29784 36181 ft 508 kts 190°
2026-04-14 16:17 47.39030 3.28326 36178 ft 508 kts 190°
2026-04-14 16:18 47.32021 3.26888 36179 ft 508 kts 189°
2026-04-14 16:18 47.25058 3.25462 36179 ft 509 kts 190°
2026-04-14 16:19 47.18048 3.24019 36179 ft 508 kts 190°
2026-04-14 16:19 47.11041 3.22570 36178 ft 508 kts 189°
2026-04-14 16:20 47.04035 3.21128 36181 ft 509 kts 189°
2026-04-14 16:20 46.97023 3.19702 36181 ft 509 kts 189°
2026-04-14 16:21 46.90014 3.18282 36201 ft 508 kts 189°
2026-04-14 16:21 46.83009 3.16865 36202 ft 508 kts 189°
2026-04-14 16:22 46.76013 3.15449 36198 ft 507 kts 189°
2026-04-14 16:22 46.69029 3.14034 36193 ft 506 kts 189°
2026-04-14 16:23 46.62044 3.12629 36190 ft 506 kts 189°
2026-04-14 16:23 46.55072 3.11228 36184 ft 506 kts 189°
2026-04-14 16:24 46.48092 3.09831 36179 ft 506 kts 189°
2026-04-14 16:24 46.41112 3.08439 36178 ft 506 kts 189°
2026-04-14 16:25 46.34174 3.07061 36177 ft 506 kts 189°
2026-04-14 16:25 46.27183 3.05678 36176 ft 506 kts 189°
2026-04-14 16:26 46.20189 3.04284 36176 ft 507 kts 189°
2026-04-14 16:26 46.13204 3.02903 36177 ft 507 kts 189°
2026-04-14 16:27 46.06221 3.01528 36174 ft 507 kts 189°
2026-04-14 16:27 45.99226 3.00151 36179 ft 507 kts 189°
2026-04-14 16:28 45.92232 2.98777 36178 ft 507 kts 189°
2026-04-14 16:28 45.85283 2.97418 36179 ft 507 kts 189°
2026-04-14 16:29 45.78287 2.96057 36180 ft 507 kts 189°
2026-04-14 16:29 45.71249 2.95182 36180 ft 508 kts 181°
2026-04-14 16:30 45.64189 2.95000 36184 ft 508 kts 181°
2026-04-14 16:30 45.57118 2.94816 36179 ft 508 kts 181°
2026-04-14 16:31 45.50054 2.94634 36183 ft 508 kts 181°
2026-04-14 16:31 45.42982 2.94442 36181 ft 508 kts 181°
2026-04-14 16:32 45.35917 2.94253 36179 ft 508 kts 181°
2026-04-14 16:32 45.28855 2.94069 36170 ft 508 kts 181°
2026-04-14 16:33 45.21830 2.93884 36163 ft 508 kts 181°
2026-04-14 16:33 45.14754 2.93689 36166 ft 508 kts 181°
2026-04-14 16:34 45.07687 2.93501 36159 ft 508 kts 181°
2026-04-14 16:34 45.01810 2.93351 36158 ft 508 kts 181°
2026-04-14 16:35 44.94739 2.93169 36118 ft 508 kts 181°
2026-04-14 16:35 44.87671 2.92982 36131 ft 509 kts 181°
2026-04-14 16:36 44.80584 2.92725 36125 ft 510 kts 182°
2026-04-14 16:36 44.73496 2.92194 36131 ft 510 kts 184°
2026-04-14 16:37 44.66411 2.91579 36127 ft 510 kts 183°
2026-04-14 16:37 44.59364 2.91025 36124 ft 510 kts 183°
2026-04-14 16:38 44.52268 2.90526 36121 ft 510 kts 182°
2026-04-14 16:38 44.45176 2.90036 36121 ft 510 kts 183°
2026-04-14 16:39 44.38093 2.89522 36122 ft 510 kts 183°
2026-04-14 16:39 44.30998 2.89004 36109 ft 511 kts 183°
2026-04-14 16:40 44.23901 2.88493 36102 ft 511 kts 183°
2026-04-14 16:40 44.16797 2.87990 36099 ft 511 kts 183°
2026-04-14 16:41 44.09691 2.87477 36100 ft 511 kts 183°
2026-04-14 16:41 44.02576 2.86958 36103 ft 512 kts 183°
2026-04-14 16:42 43.95473 2.86449 36098 ft 511 kts 183°
2026-04-14 16:42 43.88357 2.85943 36101 ft 511 kts 182°
2026-04-14 16:43 43.81256 2.85443 36103 ft 511 kts 182°
2026-04-14 16:43 43.74148 2.85071 36106 ft 511 kts 180°
2026-04-14 16:44 43.67083 2.85185 36099 ft 511 kts 178°
2026-04-14 16:44 43.59967 2.85467 36098 ft 511 kts 178°
2026-04-14 16:45 43.49300 2.85685 36101 ft 511 kts 179°
2026-04-14 16:45 43.42183 2.85757 36094 ft 511 kts 179°
2026-04-14 16:46 43.35067 2.85850 36101 ft 511 kts 179°
2026-04-14 16:46 43.27949 2.85949 36098 ft 511 kts 179°
2026-04-14 16:47 43.20836 2.86051 36101 ft 511 kts 179°
2026-04-14 16:47 43.13760 2.86157 36106 ft 511 kts 179°
2026-04-14 16:48 43.06647 2.86271 36107 ft 511 kts 178°
2026-04-14 16:48 42.99541 2.86377 36106 ft 511 kts 179°
2026-04-14 16:49 42.92435 2.86474 36109 ft 510 kts 178°
2026-04-14 16:49 42.85335 2.86572 36106 ft 510 kts 179°
2026-04-14 16:50 42.78227 2.86672 36101 ft 510 kts 179°
2026-04-14 16:50 42.71139 2.86260 36100 ft 510 kts 185°
2026-04-14 16:51 42.64071 2.85428 36097 ft 510 kts 185°
2026-04-14 16:51 42.57033 2.84605 36093 ft 510 kts 185°
2026-04-14 16:52 42.49959 2.83777 36087 ft 510 kts 185°
2026-04-14 16:52 42.42887 2.82947 36081 ft 510 kts 185°
2026-04-14 16:53 42.35818 2.82128 36068 ft 510 kts 185°
2026-04-14 16:53 42.28751 2.81306 36064 ft 509 kts 185°
2026-04-14 16:54 42.21695 2.80480 36055 ft 509 kts 185°
2026-04-14 16:54 42.14640 2.79659 36052 ft 509 kts 185°
2026-04-14 16:55 42.07590 2.78848 36050 ft 508 kts 185°
2026-04-14 16:55 42.00581 2.78079 36044 ft 508 kts 181°
2026-04-14 16:56 41.93599 2.79129 36050 ft 504 kts 161°
2026-04-14 16:56 41.87258 2.82883 36049 ft 494 kts 142°
2026-04-14 16:57 41.81667 2.88180 36052 ft 492 kts 139°
2026-04-14 16:57 41.76079 2.93490 36052 ft 493 kts 139°
2026-04-14 16:58 41.70517 2.98767 36062 ft 493 kts 139°
2026-04-14 16:58 41.64918 3.04084 36067 ft 493 kts 139°
2026-04-14 16:59 41.59317 3.09400 36108 ft 493 kts 140°
2026-04-14 16:59 41.53726 3.14692 36105 ft 492 kts 140°
2026-04-14 17:00 41.48121 3.19936 35368 ft 497 kts 141°
2026-04-14 17:00 41.45190 3.22501 34332 ft 510 kts 142°
2026-04-14 17:00 41.42143 3.25018 33239 ft 519 kts 143°
2026-04-14 17:01 41.39120 3.27413 32831 ft 502 kts 144°
2026-04-14 17:01 41.36154 3.29723 32349 ft 487 kts 144°
2026-04-14 17:01 41.33271 3.31989 31833 ft 475 kts 143°
2026-04-14 17:01 41.30481 3.34222 31323 ft 463 kts 143°
2026-04-14 17:02 41.27768 3.36430 30824 ft 452 kts 142°
2026-04-14 17:02 41.25126 3.38605 30324 ft 442 kts 142°
2026-04-14 17:02 41.22532 3.40750 29792 ft 436 kts 142°
2026-04-14 17:02 41.19964 3.42874 29320 ft 433 kts 142°
2026-04-14 17:03 41.17419 3.44972 28827 ft 430 kts 143°
2026-04-14 17:03 41.14879 3.47053 28380 ft 428 kts 143°
2026-04-14 17:03 41.12343 3.49119 27904 ft 428 kts 143°
2026-04-14 17:03 41.09799 3.51179 27449 ft 427 kts 143°
2026-04-14 17:04 41.07259 3.53230 26994 ft 426 kts 144°
2026-04-14 17:04 41.04734 3.55265 26549 ft 424 kts 144°
2026-04-14 17:04 41.02214 3.57300 26105 ft 422 kts 144°
2026-04-14 17:04 40.99713 3.59322 25690 ft 420 kts 144°
2026-04-14 17:05 40.97226 3.61331 25274 ft 417 kts 144°
2026-04-14 17:05 40.94755 3.63326 24862 ft 415 kts 144°
2026-04-14 17:05 40.92333 3.65282 24459 ft 412 kts 144°
2026-04-14 17:05 40.89891 3.67254 24055 ft 409 kts 144°
2026-04-14 17:06 40.87468 3.69212 23606 ft 407 kts 144°
2026-04-14 17:06 40.85055 3.71160 23142 ft 404 kts 145°
2026-04-14 17:06 40.82672 3.73080 22710 ft 399 kts 145°
2026-04-14 17:06 40.80312 3.74978 22277 ft 395 kts 145°
2026-04-14 17:07 40.77975 3.76853 21841 ft 391 kts 145°
2026-04-14 17:07 40.75661 3.78705 21384 ft 387 kts 146°
2026-04-14 17:07 40.73364 3.80542 20945 ft 384 kts 146°
2026-04-14 17:07 40.71094 3.82357 20483 ft 381 kts 147°
2026-04-14 17:08 40.68837 3.84160 20028 ft 378 kts 147°
2026-04-14 17:08 40.66599 3.85945 19568 ft 375 kts 147°
2026-04-14 17:08 40.64377 3.87717 19117 ft 372 kts 147°
2026-04-14 17:08 40.62172 3.89479 18660 ft 370 kts 147°
2026-04-14 17:09 40.59982 3.91232 18182 ft 367 kts 147°
2026-04-14 17:09 40.57835 3.92950 17717 ft 364 kts 147°
2026-04-14 17:09 40.55684 3.94666 17272 ft 360 kts 147°
2026-04-14 17:09 40.53555 3.96357 16822 ft 356 kts 147°
2026-04-14 17:10 40.51444 3.98032 16371 ft 353 kts 147°
2026-04-14 17:10 40.49236 3.99401 15938 ft 352 kts 159°
2026-04-14 17:10 40.46869 4.00288 15655 ft 354 kts 164°
2026-04-14 17:10 40.44491 4.01128 15337 ft 353 kts 163°
2026-04-14 17:11 40.42123 4.01972 15020 ft 352 kts 163°
2026-04-14 17:11 40.39769 4.02815 14716 ft 350 kts 163°
2026-04-14 17:11 40.37423 4.03654 14397 ft 349 kts 163°
2026-04-14 17:11 40.35090 4.04486 14085 ft 347 kts 163°
2026-04-14 17:12 40.32765 4.05310 13762 ft 345 kts 163°
2026-04-14 17:12 40.30454 4.06125 13444 ft 343 kts 163°
2026-04-14 17:12 40.28183 4.06924 13140 ft 341 kts 163°
2026-04-14 17:12 40.25868 4.07738 12824 ft 339 kts 163°
2026-04-14 17:13 40.23596 4.08541 12520 ft 337 kts 163°
2026-04-14 17:13 40.21367 4.09331 12230 ft 336 kts 163°
2026-04-14 17:13 40.19119 4.10126 11929 ft 334 kts 163°
2026-04-14 17:13 40.16862 4.10828 11627 ft 333 kts 173°
2026-04-14 17:14 40.14568 4.10587 11321 ft 332 kts 196°
2026-04-14 17:14 40.12401 4.09552 11035 ft 330 kts 202°
2026-04-14 17:14 40.10274 4.08435 10741 ft 329 kts 202°
2026-04-14 17:14 40.08160 4.07316 10450 ft 326 kts 202°
2026-04-14 17:15 40.06081 4.06213 10170 ft 320 kts 202°
2026-04-14 17:15 40.04035 4.05127 9881 ft 315 kts 202°
2026-04-14 17:15 40.02025 4.04059 9558 ft 310 kts 202°
2026-04-14 17:15 40.00039 4.03008 9237 ft 306 kts 202°
2026-04-14 17:16 39.98098 4.01986 8928 ft 303 kts 202°
2026-04-14 17:16 39.96148 4.00964 8620 ft 301 kts 202°
2026-04-14 17:16 39.94208 3.99949 8308 ft 300 kts 202°
2026-04-14 17:16 39.92277 3.98936 8006 ft 299 kts 202°
2026-04-14 17:17 39.90323 3.98032 7700 ft 298 kts 191°
2026-04-14 17:17 39.88263 3.97969 7389 ft 296 kts 174°
2026-04-14 17:17 39.86214 3.98215 7073 ft 295 kts 173°
2026-04-14 17:17 39.84172 3.98483 6754 ft 295 kts 172°
2026-04-14 17:18 39.82131 3.98750 6418 ft 295 kts 172°
2026-04-14 17:18 39.80096 3.99018 6027 ft 294 kts 172°
2026-04-14 17:18 39.78057 3.99289 5640 ft 294 kts 172°
2026-04-14 17:18 39.76019 3.99561 5257 ft 294 kts 172°
2026-04-14 17:19 39.73985 3.99832 4929 ft 292 kts 172°
2026-04-14 17:19 39.72003 4.00097 4619 ft 289 kts 173°
2026-04-14 17:19 39.70017 4.00368 4310 ft 285 kts 172°
2026-04-14 17:19 39.68048 4.00640 3997 ft 282 kts 172°
2026-04-14 17:20 39.66106 4.00910 3733 ft 278 kts 172°
2026-04-14 17:20 39.64288 4.01574 3526 ft 267 kts 147°
2026-04-14 17:20 39.62996 4.03169 3322 ft 251 kts 116°
2026-04-14 17:20 39.62525 4.05253 3119 ft 236 kts 88°
2026-04-14 17:21 39.62557 4.07366 3005 ft 234 kts 83°
2026-04-14 17:21 39.62651 4.09468 3002 ft 233 kts 83°
2026-04-14 17:21 39.62754 4.11569 3004 ft 233 kts 82°
2026-04-14 17:21 39.62952 4.13582 3000 ft 215 kts 70°
2026-04-14 17:22 39.63545 4.15274 2994 ft 202 kts 53°
2026-04-14 17:22 39.64470 4.16598 3004 ft 196 kts 37°
2026-04-14 17:22 39.65629 4.17488 2999 ft 194 kts 21°
2026-04-14 17:22 39.66914 4.17901 2997 ft 193 kts
2026-04-14 17:23 39.68242 4.18172 3007 ft 193 kts
2026-04-14 17:23 39.69572 4.18444 3007 ft 193 kts
2026-04-14 17:23 39.70904 4.18716 2832 ft 194 kts
2026-04-14 17:23 39.72236 4.18989 2568 ft 194 kts
2026-04-14 17:24 39.73563 4.19261 2357 ft 189 kts
2026-04-14 17:24 39.74826 4.19520 2107 ft 177 kts
2026-04-14 17:24 39.76014 4.19763 1995 ft 172 kts
2026-04-14 17:24 39.77184 4.20002 2022 ft 170 kts
2026-04-14 17:25 39.78333 4.20248 1784 ft 162 kts
2026-04-14 17:25 39.79411 4.20492 1515 ft 149 kts
2026-04-14 17:25 39.80433 4.20693 1327 ft 158 kts
2026-04-14 17:25 39.81627 4.20901 1161 ft 175 kts
2026-04-14 17:26 39.82762 4.21155 944 ft 154 kts
2026-04-14 17:26 39.83761 4.21349 639 ft 139 kts
2026-04-14 17:26 39.84696 4.21549 412 ft 133 kts
2026-04-14 17:26 39.85571 4.21725 299 ft 119 kts
2026-04-14 17:27 39.86072 4.21823 298 ft 93 kts
2026-04-14 17:27 39.86656 4.21946 298 ft 40 kts
2026-04-14 17:27 39.86842 4.22064 307 ft 19 kts 39°
2026-04-14 17:27 39.86927 4.22154 303 ft 17 kts 50°
2026-04-14 17:28 39.86927 4.22278 298 ft 14 kts 97°
2026-04-14 17:28 39.86889 4.22398 295 ft 15 kts 163°
2026-04-14 17:28 39.86817 4.22390 295 ft 15 kts 189°
2026-04-14 17:28 39.86699 4.22366 295 ft 18 kts 188°
2026-04-14 17:29 39.86567 4.22341 295 ft 20 kts 189°
2026-04-14 17:29 39.86488 4.22325 295 ft 6 kts 169°
2026-04-14 17:29 39.86466 4.22388 298 ft 6 kts 99°
2026-04-14 17:29 39.86464 4.22406 297 ft 0 kts 98°
2026-04-14 17:32 39.86464 4.22407 297 ft 0 kts 98°